Showing default

IRIDIUM 160, 43569

Orbit data source: Space-Track

IRIDIUM 160, 43569 is a payload satellite owned by Iridium (US) in LEO that was launched on Wed, 25 Jul 2018 UTC via an FALCON 9 launch vehicle from the Air Force Western Test Range (AFWTR). Payloads include a variety of satellites, spacecraft, and rockets equipped with specific instruments for various scientific and technological missions. These include communications satellites like Starlink; space stations such as the ISS; scientific satellites like the Hubble; Earth observation satellites from companies like Planet Labs, Umbra, and HawkEye 360; GPS; miniature CubeSats for education and research; and military/defense satellites.

Loading next visibility...
IRIDIUM 160 details
Identifier
43569, 2018-061A
Orbit
LEO
Last TLE update19 hours ago
Origin
Flag of USIridium (US)
ManufacturerNGIS SSG Gilbert
MissionOperational Commercial Communications
Bus & MotorELITEBUS, Unknown motor
Mass860 kg wet, 700 kg dry
Launch date (UTC)
2018-07-25 (6 years ago)
Launch vehicle
FALCON 9
Launch site
Air Force Western Test Range (AFWTR)
Object type
Payload
Rocket body
Debris
Shape & HBRTrap Box + 2 Pan, 9.4 m
Radar Cross Section14.423 m², Large (>1 m²)

Expand to show TLE details & history

TLE from 19 hours ago
0 IRIDIUM 160
1 43569U 18061A   24336.58655900  .00000964  00000-0  33729-3 0  9995
2 43569  86.3944 291.8735 0002346  91.2549 268.8915 14.34219067332737
Epoch: 2024-12-01T14:04Z
Definitive object data (Epoch: 2024-12-01T14:04:38.697Z)
Latitude-0.00009°
Longitude9.78962°
Altitude780.747 km
Speed7.463 km/s
True Right ascension19h 27m 29s
True Declination0° 00' 00"
Sunlit
Object was in daylight at TLE epoch
Visualization TLE readout
Latitude48.48537°
Longitude13.5251°
Altitude784.075 km
Speed7.467 km/s
Apparent Right ascension19h 05m 27s
Apparent Declination7° 35' 01"
Sunlit
Object is in daylight
Visualization observer readout
Local Sidereal Time06:29:33
Azimuth348.034° N
Elevation-41.781°
Doppler factor1
Orbital elements
Apogee altitude776.305 km
Perigee altitude772.949 km
Semi-major axis7,152.764 km
Eccentricity0.0002346
Inclination86.3944°
RAAN291.8735°
Arg. of periapsis91.2549°
True anomaly268.86462°
Mean anomaly268.8915°
Eccentric anomaly268.87806°
Mean motion3.58783 °/min
BSTAR0.00033729
Orbital period100.34 mins
Loading maneuver chart data...
Loading historical data...
Loading historical data...
Loading historical data...
Loading historical data...
Loading historical data...
Loading historical data...
Loading historical data...

IRIDIUM 160 Visibility forecast

Observer location: undefined°, undefined

Span
Click to sort rows by Start time (UTC) header in descending order
Start Az.
Max El. time (UTC)
Max El. Az.
Max El.
End time (UTC)
End Az.
9 mins2024-12-02 09:04:16.815Z7.046° NNE2024-12-02 09:08:16.815Z60.89° ENE39.93°2024-12-02 09:13:16.815Z163.663° S
4 mins2024-12-02 10:47:16.815Z302.059° NW2024-12-02 10:49:16.815Z276.386° WNW14.344°2024-12-02 10:51:16.815Z252.488° W
8 mins2024-12-02 22:01:16.815Z197.455° SSW2024-12-02 22:04:16.815Z248.745° W41.276°2024-12-02 22:09:16.815Z354.834° N
7 mins2024-12-03 08:32:16.815Z31.792° NE2024-12-03 08:35:16.815Z85.183° E27.719°2024-12-03 08:39:16.815Z140.993° SSE
|